[[{"header":{"parameterUnit":"m.s-1","parameterCategory":1,"la1":30.2991,"la2":30.254,"lo1":-89.0895,"lo2":-89.0444,"dy":0.0017,"dx":0.0017,"nx":28,"ny":28,"refTime":"2024-11-25T03:00:00:Z","depth":0,"parameterNumber":2,"parameterNumberName":"U-component_of_WINDS"},"data":[0,0,0,0,0,0,0,0,0,0,0,0,0,0,0,0,0,0,0,0,0,0,0,0,0,0,0,0,0,0,0,0,0,0,0,0,0,0,0,0,0,0,0,0,0,0,0,0,0,0,0,0,0,0,0,0,0,0,3.1977,3.1978,0,3.2112,3.2113,3.2115,3.2108,3.2106,3.2104,3.2103,3.2244,3.225,3.2255,0,0,0,0,0,0,0,0,0,0,0,0,0,3.1717,3.1722,3.1977,3.1978,3.198,3.2111,3.2113,3.2115,3.2109,3.2106,3.2104,3.2102,3.2242,3.2249,3.2256,0,0,0,0,0,0,0,0,0,0,0,0,0,3.1839,3.1723,3.1976,3.1993,3.1995,3.2111,3.2113,3.2116,3.2109,3.2106,3.2103,3.2101,3.224,3.2248,3.2257,3.2366,0,0,3.2282,3.2286,0,0,0,0,0,0,0,0,3.1832,3.1848,3.1989,3.1992,3.1995,3.209,3.2074,3.22,3.211,3.2066,3.2102,3.2099,3.2196,3.2207,3.2239,3.2373,3.2379,3.2283,3.2288,3.2292,3.2294,0,0,0,0,0,0,0,3.1823,3.1842,3.203,3.1991,3.1995,3.1994,3.2008,3.2097,3.2146,3.207,3.2069,3.2085,3.2197,3.2231,3.2242,3.2381,3.2283,3.229,3.2295,3.2298,3.2611,3.2614,0,0,0,0,0,0,3.1811,3.1835,3.2026,3.2034,3.1904,3.2001,3.2017,3.2063,3.2144,3.2154,3.2088,3.2084,3.2218,3.2233,3.2247,3.238,3.2291,3.2299,3.2304,3.2608,3.2612,3.2615,0,0,0,0,0,0,3.1805,3.1828,3.202,3.1935,3.1959,3.2009,3.206,3.2067,3.2101,3.2158,3.2167,3.2114,3.2217,3.2236,3.2336,3.2385,3.2303,3.2311,3.2604,3.2609,3.2613,3.2648,0,0,0,0,0,0,3.1798,3.1826,3.1867,3.1936,3.1964,3.2106,3.2063,3.2071,3.2115,3.2112,3.2185,3.2194,3.2216,3.2324,3.2345,3.2395,3.2317,3.26,3.2606,3.2612,3.2642,3.2653,3.2662,0,0,0,0,0,3.1789,3.1872,3.1869,3.1892,3.2016,3.2109,3.2125,3.2147,3.2119,3.2161,3.2198,3.2192,3.2377,3.2334,3.2358,3.2411,3.2597,3.2604,3.2611,3.2638,3.2651,3.2662,0,0,0,0,0,0,3.1809,3.1882,3.1879,3.1987,3.2042,3.2108,3.2162,3.2161,3.2225,3.222,3.2246,3.2263,3.2363,3.2398,3.2349,3.2522,3.2483,3.2496,3.2495,3.2508,3.2518,3.2507,3.2324,0,0,0,0,0,3.1826,3.1895,3.1955,3.2044,3.2072,3.2112,3.2153,3.2166,3.2224,3.2247,3.2291,3.2349,3.242,3.2466,3.2535,3.2648,3.2663,3.2696,3.2706,3.2714,3.2724,3.2786,3.2802,3.264,3.264,3.2639,0,0,3.1863,3.1911,3.1952,3.205,3.2093,3.2164,3.2132,3.2208,3.2261,3.2259,3.2356,3.2391,3.2457,3.2564,3.2613,3.2596,3.2773,3.2724,3.2729,3.2736,3.2796,3.2811,3.2824,3.2645,3.2644,3.2643,0,0,3.1964,3.2008,3.2087,3.2131,3.2197,3.2224,3.2243,3.2309,3.2331,3.2429,3.2429,3.2493,3.2615,3.2662,3.2702,3.2821,3.2818,3.2843,3.2895,3.2955,3.2968,3.298,3.3022,3.3037,3.2853,3.2854,3.2854,0,3.2001,3.2107,3.2128,3.2204,3.2247,3.2248,3.2329,3.2371,3.2457,3.2487,3.2466,3.2618,3.2663,3.2781,3.281,3.2843,3.2865,3.2835,3.2964,3.2976,3.2987,3.3028,3.3043,3.2856,3.2856,3.2856,3.2855,0,3.2148,3.2222,3.2278,3.2359,3.2409,3.2487,3.2521,3.2569,3.2577,3.2606,3.2706,3.2759,3.2838,3.2868,3.2877,3.2987,3.2974,3.2958,3.292,3.3005,3.3043,3.3059,3.286,3.2859,3.2858,3.2857,0,0,3.2266,3.2358,3.2378,3.2415,3.2488,3.2546,3.2625,3.2701,3.2741,3.2801,3.2868,3.2971,3.2957,3.3002,3.3017,3.307,3.3161,3.3048,3.305,3.3066,3.3285,3.3295,3.3313,3.3159,3.3162,3.3165,3.3279,0,3.2375,3.2513,3.2534,3.2656,3.2724,3.2726,3.2795,3.2848,3.2877,3.294,3.2973,3.3045,3.3022,3.3049,3.3101,3.3138,3.3205,3.3131,3.3222,3.3225,3.3204,3.3333,3.3345,3.345,3.3294,3.3297,3.3299,0,3.2519,3.2581,3.271,3.2773,3.2803,3.2864,3.2935,3.2996,3.3056,3.3074,3.3124,3.3133,3.3215,3.3174,3.3289,3.3238,3.3277,3.3301,3.3305,3.3314,3.3266,3.3345,3.3484,3.3499,3.3323,3.3321,3.3319,0,3.2591,3.2707,3.2799,3.283,3.2907,3.295,3.2985,3.3042,3.3086,3.315,3.3179,3.3251,3.3291,3.3348,3.3376,3.3343,3.3488,3.3449,3.3506,3.3505,3.3535,3.3533,3.3682,3.3562,3.3562,3.3562,3.3561,0,3.271,3.2788,3.2832,3.2888,3.2976,3.3001,3.3088,3.3121,3.3172,3.3236,3.3243,3.3302,3.3336,3.3401,3.3424,3.3515,3.3534,3.3551,3.3556,3.355,3.3547,3.3575,3.3568,3.3566,3.3565,3.3564,3.3563,0,3.2804,3.2837,3.2937,3.3001,3.3019,3.3081,3.3137,3.3192,3.3221,3.3302,3.3322,3.3368,3.3445,3.3479,3.3574,3.359,3.3694,3.3694,3.3672,3.3674,3.3728,3.3722,3.3899,3.3924,3.3788,3.3789,3.3791,0,3.2877,3.2937,3.3008,3.305,3.3085,3.3154,3.3199,3.3226,3.3273,3.3346,3.3393,3.347,3.3532,3.3655,3.3698,3.3771,3.3773,3.383,3.3784,3.3775,3.3773,3.3768,3.3774,3.3838,3.3839,3.384,3.3841,0,3.3002,3.3015,3.3079,3.3149,3.3203,3.326,3.3315,3.335,3.3386,3.3439,3.3516,3.3565,3.3662,3.3738,3.3814,3.385,3.3852,3.3855,3.3872,3.3866,3.3851,3.3859,3.3694,3.3851,3.385,3.3849,3.3849,3.3848,3.3087,3.3141,3.3199,3.327,3.3314,3.3366,3.3421,3.3457,3.3522,3.3602,3.3615,3.3698,3.3757,3.3859,3.3898,3.3965,3.3951,3.3975,3.3981,3.3987,3.3989,3.3841,3.3979,3.3978,3.3978,3.3978,3.3978,0,3.3212,3.3249,3.3315,3.3392,3.3448,3.3444,3.3506,3.3553,3.3626,3.3681,3.3742,3.3832,3.3906,3.3955,3.403,3.4074,3.4076,3.4092,3.4089,3.4097,3.3998,3.3975,3.4089,3.4089,3.4089,3.4089,3.4089,3.4089,3.3283,3.3373,3.3393,3.3505,3.3543,3.3623,3.3659,3.3707,3.3751,3.385,3.3911,3.3942,3.3995,3.4074,3.4142,3.4155,3.4182,3.4198,3.421,3.4116,3.4104,3.4093,3.4072,3.4204,3.4205,3.4304,3.4305,3.4306]},{"header":{"parameterUnit":"m.s-1","parameterCategory":1,"la1":30.2991,"la2":30.254,"lo1":-89.0895,"lo2":-89.0444,"dy":0.0017,"dx":0.0017,"nx":28,"ny":28,"refTime":"2024-11-25T03:00:00:Z","depth":0,"parameterNumber":3,"parameterNumberName":"V-component_of_WINDS"},"data":[0,0,0,0,0,0,0,0,0,0,0,0,0,0,0,0,0,0,0,0,0,0,0,0,0,0,0,0,0,0,0,0,0,0,0,0,0,0,0,0,0,0,0,0,0,0,0,0,0,0,0,0,0,0,0,0,0,0,2.6899,2.69,0,2.696,2.696,2.6961,2.6944,2.6943,2.6942,2.6941,2.7,2.7003,2.7005,0,0,0,0,0,0,0,0,0,0,0,0,0,2.6765,2.6768,2.6899,2.69,2.6901,2.696,2.696,2.6961,2.6945,2.6943,2.6942,2.694,2.6999,2.7002,2.7006,0,0,0,0,0,0,0,0,0,0,0,0,0,2.6824,2.6769,2.6899,2.6899,2.69,2.6959,2.696,2.6961,2.6945,2.6943,2.6941,2.6939,2.6998,2.7002,2.7006,2.7068,0,0,2.7018,2.702,0,0,0,0,0,0,0,0,2.6821,2.6829,2.6899,2.6899,2.69,2.6943,2.6935,2.6997,2.6945,2.6928,2.6941,2.6939,2.6982,2.6987,2.7003,2.707,2.7073,2.7019,2.7021,2.7023,2.7024,0,0,0,0,0,0,0,2.6817,2.6827,2.6923,2.69,2.6901,2.6895,2.6902,2.6947,2.6964,2.6929,2.6928,2.6936,2.6982,2.6999,2.7004,2.7074,2.7019,2.7022,2.7025,2.7026,2.7194,2.7196,0,0,0,0,0,0,2.6813,2.6823,2.6921,2.6925,2.6856,2.6899,2.6907,2.6931,2.6964,2.6967,2.6937,2.6935,2.6993,2.6999,2.7006,2.708,2.7023,2.7027,2.7029,2.7192,2.7194,2.7196,0,0,0,0,0,0,2.681,2.6822,2.6918,2.6874,2.6886,2.6904,2.6931,2.6933,2.695,2.697,2.6973,2.6951,2.6992,2.7,2.7052,2.7082,2.7029,2.7032,2.719,2.7193,2.7195,2.7228,0,0,0,0,0,0,2.6806,2.6821,2.6845,2.6875,2.6888,2.6965,2.6933,2.6935,2.6957,2.6954,2.6984,2.6987,2.6991,2.7046,2.7056,2.7086,2.7036,2.7187,2.7191,2.7194,2.7225,2.7232,2.7238,0,0,0,0,0,2.6802,2.6852,2.6847,2.6858,2.6919,2.6967,2.6975,2.6979,2.6959,2.6984,2.6996,2.6986,2.7077,2.7052,2.7063,2.7095,2.7185,2.719,2.7194,2.7222,2.7231,2.7238,0,0,0,0,0,0,2.6825,2.6856,2.685,2.6912,2.6937,2.6964,2.6995,2.6989,2.7019,2.7015,2.7018,2.7025,2.7078,2.7092,2.7063,2.7155,2.7128,2.7135,2.7145,2.7154,2.716,2.7156,2.7039,0,0,0,0,0,2.6837,2.6874,2.6898,2.695,2.6963,2.6977,2.6998,2.6999,2.7025,2.7035,2.7052,2.7076,2.711,2.7133,2.7165,2.7226,2.7232,2.7253,2.726,2.7266,2.7272,2.7304,2.7314,2.7211,2.7211,2.7211,0,0,2.6863,2.6884,2.6907,2.6955,2.6975,2.7012,2.6986,2.7026,2.7054,2.7041,2.7091,2.7104,2.7132,2.7189,2.7214,2.7201,2.7301,2.7271,2.7276,2.7279,2.731,2.7319,2.7328,2.7214,2.7214,2.7213,0,0,2.6928,2.6949,2.6994,2.7014,2.7044,2.7053,2.7064,2.7092,2.71,2.7151,2.7142,2.7174,2.7233,2.7252,2.727,2.7343,2.7334,2.7353,2.7389,2.742,2.7428,2.7435,2.7461,2.747,2.7359,2.7359,2.7359,0,2.6956,2.7013,2.7017,2.7059,2.708,2.7071,2.7116,2.7135,2.7174,2.7188,2.7173,2.7246,2.7264,2.7325,2.7342,2.7357,2.7369,2.735,2.7427,2.7434,2.7441,2.7465,2.7475,2.7361,2.7361,2.736,2.736,0,2.7045,2.7085,2.7117,2.7156,2.718,2.7223,2.7233,2.7257,2.7256,2.7266,2.7317,2.7338,2.7375,2.7389,2.7388,2.745,2.744,2.7426,2.7399,2.7453,2.7475,2.7485,2.7364,2.7363,2.7363,2.7362,0,0,2.7128,2.7168,2.718,2.7197,2.723,2.726,2.7301,2.7338,2.7358,2.7385,2.7419,2.7469,2.7456,2.7476,2.7477,2.7505,2.756,2.7487,2.7488,2.75,2.7628,2.7639,2.765,2.7554,2.7556,2.7557,2.7626,0,2.7196,2.7271,2.7276,2.7343,2.7379,2.737,2.7407,2.743,2.744,2.7471,2.7481,2.7516,2.7496,2.7508,2.7536,2.7548,2.7586,2.7543,2.7585,2.7587,2.7579,2.7662,2.7673,2.7737,2.7635,2.7636,2.7637,0,2.7286,2.7317,2.7388,2.7415,2.743,2.7462,2.7496,2.7526,2.7551,2.7556,2.7579,2.7576,2.7617,2.7588,2.7645,2.7615,2.7633,2.7641,2.7644,2.7648,2.7616,2.7668,2.7757,2.7767,2.7652,2.765,2.7649,0,2.7339,2.7397,2.7447,2.7462,2.7495,2.7518,2.7532,2.7556,2.7577,2.7606,2.762,2.7652,2.767,2.7695,2.77,2.7679,2.7757,2.7728,2.7762,2.7762,2.7779,2.7778,2.7872,2.779,2.779,2.779,2.779,0,2.7414,2.7458,2.7471,2.7502,2.755,2.7555,2.7602,2.7615,2.7636,2.7668,2.7662,2.7692,2.7698,2.7728,2.7733,2.7779,2.7787,2.7791,2.7792,2.7792,2.7791,2.7804,2.7799,2.7792,2.7792,2.7791,2.7791,0,2.7481,2.7492,2.7546,2.7572,2.758,2.7614,2.7636,2.7665,2.7674,2.7715,2.7725,2.7739,2.7775,2.7783,2.7825,2.7828,2.7883,2.7879,2.7874,2.7874,2.7907,2.7903,2.8012,2.8027,2.7935,2.7936,2.7937,0,2.7529,2.7563,2.7593,2.7614,2.763,2.7665,2.7687,2.7692,2.7714,2.7746,2.7771,2.7806,2.7835,2.7893,2.7906,2.7938,2.7935,2.7971,2.794,2.7938,2.7935,2.7933,2.7936,2.7977,2.7978,2.7978,2.7979,0,2.7612,2.7616,2.7648,2.7682,2.7708,2.7735,2.7761,2.7778,2.7787,2.7812,2.785,2.7872,2.7915,2.795,2.7983,2.7996,2.7989,2.7989,2.7998,2.7999,2.7995,2.7997,2.789,2.7986,2.7986,2.7985,2.7985,2.7984,2.7671,2.77,2.7726,2.7762,2.7781,2.7805,2.7834,2.7846,2.7878,2.7915,2.7915,2.7956,2.7979,2.8022,2.8037,2.8068,2.8057,2.807,2.8074,2.8077,2.808,2.799,2.8074,2.8074,2.8074,2.8073,2.8073,0,2.7754,2.777,2.7803,2.7839,2.7867,2.7858,2.7886,2.7909,2.7945,2.7968,2.7997,2.8039,2.8073,2.8089,2.8122,2.8143,2.8141,2.8152,2.815,2.8153,2.8088,2.8077,2.8153,2.8153,2.8153,2.8153,2.8153,2.8153,2.78,2.7849,2.7855,2.7913,2.7929,2.7969,2.7986,2.8007,2.8026,2.8073,2.8102,2.8112,2.8132,2.8166,2.8197,2.82,2.8213,2.8225,2.8227,2.8166,2.8158,2.815,2.814,2.8228,2.8228,2.829,2.829,2.8291]}]]